Regional Weather Roundup
Issued by NWS

Home | Current Version | Previous Version | Graphics & Text | Print | Product List | Glossary On
Versions: 1 2 3 4 5 6 7 8 9 10 11 12 13 14 15 16 17 18 19 20 21 22 23 24 25 26 27 28 29 30 31 32 33 34 35 36 37 38 39 40 41 42 43 44 45 46 47 48 49 50
000
ASUS43 KDTX 010810
RWRMI
MICHIGAN HOURLY REGIONAL WEATHER ROUNDUP
NATIONAL WEATHER SERVICE DETROIT/PONTIAC MI
300 AM EST SUN MAR 01 2015

NOTE: "FAIR" INDICATES FEW OR NO CLOUDS BELOW 12,000 FEET WITH NO
SIGNIFICANT WEATHER AND/OR OBSTRUCTION TO VISIBILITY.

MIZ047>049-052>055-059>063-066>070-074>076-081>083-010900-
SOUTHEAST LOWER MICHIGAN

CITY           SKY/WX    TMP DP  RH WIND       PRES   REMARKS
ADRIAN         LGT SNOW  14  11  87 E3        30.45F FOG
ALMA           FLURRIES  15   8  76 S5        30.44F
ANN ARBOR      LGT SNOW  14  10  84 E3        30.44F FOG
BAD AXE        CLOUDY    13   6  73 S8        30.46F
DETROIT CITY   LGT SNOW  16  10  77 SE3       30.48F
DETROIT        LGT SNOW  16  12  86 NE3       30.47F FOG
FLINT          LGT SNOW  15  10  80 S5        30.46F
GROSSE ILE     LGT SNOW  16  12  86 NE5       30.46F
HILLSDALE      LGT SNOW  14  11  88 CALM      30.41S
HOWELL         LGT SNOW  13  10  86 CALM      30.44F

CITY           SKY/WX    TMP DP  RH WIND       PRES   REMARKS
JACKSON        LGT SNOW  14  10  84 SE3       30.43F FOG
LAMBERTVILLE   LGT SNOW  18  14  86 CALM      30.45F
LANSING        LGT SNOW  14   9  80 S5        30.44F
LAPEER         NOT AVBL
MASON          LGT SNOW  14  10  83 SE3       30.44F
MONROE         LGT SNOW  16  12  86 CALM      30.44F
MT. CLEMENS    FLURRIES  13   8  79 E3        30.46F
PONTIAC        LGT SNOW  13   9  84 SE5       30.44F FOG
PORT HOPE        N/A     13   2  61 S5        30.46F
PORT HURON     LGT SNOW  12   7  79 CALM      30.49F
TRI CITIES     CLOUDY    17   4  56 S6        30.45F
YPSILANTI      LGT SNOW  18  10  71 E5        30.46F
$$
MIZ043>046-050>051-056>058-064>065-071>073-077>080-010900-
SOUTHWEST LOWER MICHIGAN

CITY           SKY/WX    TMP DP  RH WIND       PRES   REMARKS
BATTLE CREEK   LGT SNOW  15  10  80 SE6       30.42F
BENTON HARBOR  LGT SNOW  15  13  91 E5        30.43F FOG
BIG RAPIDS     CLOUDY    13   1  60 CALM      30.39F
COLDWATER      LGT SNOW  15  11  85 CALM      30.43S
HOLLAND        LGT SNOW  15  10  80 SE3       30.44F
GRAND RAPIDS   LGT SNOW  14  10  84 SE5       30.43F FOG
KALAMAZOO      LGT SNOW  15  10  80 SE5       30.42F
MARSHALL       FLURRIES  13  10  87 CALM      30.42F
MUSKEGON       LGT SNOW  16  12  84 SE6       30.44S FOG
$$
MIZ016>042-010900-
NORTHERN LOWER MICHIGAN

CITY           SKY/WX    TMP DP  RH WIND       PRES   REMARKS
ALPENA         MOCLDY    11   1  64 S3        30.43F
BEAVER ISLAND  CLOUDY    17   8  68 S9        30.36F
BELLAIRE       PTCLDY     1  -3  83 CALM      30.41F
CADILLAC       PTCLDY    11   1  62 S7        30.35F
CHARLEVOIX     CLOUDY    13   5  70 CALM      30.41F
FRANKFORT      CLOUDY    17   7  66 S6        30.40S
GAYLORD        PTCLDY     8  -1  66 S6        30.34F
GRAYLING       MOCLDY     8  -2  63 CALM      30.38F
HARBOR SPRINGS CLOUDY    12   4  72 SW3       30.38F
HOUGHTON LAKE  CLOUDY    11  -2  56 S5        30.39F
MANISTEE       PTCLDY    16   3  57 S6        30.41S
OSCODA         CLOUDY    11   0  61 CALM      30.44F
PELLSTON       CLOUDY     7   4  87 S3        30.39F
TRAVERSE CITY  CLOUDY    12   3  67 CALM      30.39F
$$
MIZ007>008-015-010900-
EASTERN UPPER MICHIGAN

CITY           SKY/WX    TMP DP  RH WIND       PRES   REMARKS
KINROSS        CLOUDY    10   9  92 S5        30.36F
MACKINAC ISLAN CLOUDY    12   5  73 S8        30.37F
NEWBERRY       FLURRIES  11   9  92 S7        30.33F
S. S. MARIE    CLOUDY     4  -1  80 SE3       30.37F
$$
MIZ004>006-011>014-085-010900-
CENTRAL UPPER MICHIGAN

CITY           SKY/WX    TMP DP  RH WIND       PRES   REMARKS
MANISTIQUE     CLOUDY    16   2  55 SW5G17    30.34F
ESCANABA       CLOUDY    12   1  62 SW7       30.36F
MENOMINEE      CLOUDY    16   1  53 SW6       30.36F
SAWYER-GWINN   CLOUDY     9   0  66 SW10      30.25F WCI  -6
$$
MIZ001>003-009>011-084-010900-
WESTERN UPPER MICHIGAN

CITY           SKY/WX    TMP DP  RH WIND       PRES   REMARKS
IRON MOUNTAIN  CLOUDY    11  -1  58 S6        30.27F
HOUGHTON       CLOUDY    14  -3  47 W9        30.20F
COPPER HARBOR    N/A     14  -3  47 SW3       30.22F
IRONWOOD       CLOUDY    12   3  67 SW13      30.19F WCI  -3
$$

ABBREVIATIONS USED IN REMARKS
   TC - TEMPERATURE IN CELSIUS
  WCI - WIND CHILL INDEX
   HX - HEAT INDEX
  VSB - VISIBILITY




USA.gov is the U.S. government's official web portal to all federal, state and local government web resources and services.